This is the latest recevied weather packets stored in our database for station/object KB0Y. If no packets are shown the sender has not sent any weather packets the latest 10 day(s).
| Time | Temp. | Humidity | Pressure | Rain* | Wind** | Luminosity | Snow |
|---|---|---|---|---|---|---|---|
| 1777812311 | 12.78° C | 86% | 1023.4 hPa | 0 mm | - | 178 W/m² | - |
| 1777812010 | 12.78° C | 86% | 1023.8 hPa | 0 mm | - | 165 W/m² | - |
| 1777811709 | 12.78° C | 86% | 1023.4 hPa | 0 mm | - | 165 W/m² | - |
| 1777811403 | 11.67° C | 86% | 1023.8 hPa | 0 mm | - | 156 W/m² | - |
| 1777811100 | 11.67° C | 86% | 1023.4 hPa | 0 mm | - | 151 W/m² | - |
| 1777810798 | 11.67° C | 87% | 1023.4 hPa | 0 mm | - | 140 W/m² | - |
| 1777810495 | 11.67° C | 87% | 1023.4 hPa | 0 mm | - | 134 W/m² | - |
| 1777810191 | 11.11° C | 88% | 1023.1 hPa | 0 mm | - | 43 W/m² | - |
| 1777809887 | 11.11° C | 88% | 1023.1 hPa | 0 mm | - | 43 W/m² | - |
| 1777809586 | 10.56° C | 90% | 1023.1 hPa | 0 mm | - | 45 W/m² | - |
| 1777809283 | 10.56° C | 90% | 1023.4 hPa | 0 mm | - | 41 W/m² | - |
| 1777808980 | 10.56° C | 91% | 1023.1 hPa | 0 mm | - | 69 W/m² | - |
| 1777808678 | 10.56° C | 92% | 1023.1 hPa | 0 mm | - | 34 W/m² | - |
| 1777808374 | 10.56° C | 93% | 1023.1 hPa | 0 mm | - | 33 W/m² | - |
| 1777808073 | 10° C | 93% | 1022.8 hPa | 0 mm | - | 29 W/m² | - |
| 1777807770 | 10° C | 94% | 1022.8 hPa | 0 mm | - | 29 W/m² | - |
| 1777807463 | 10° C | 94% | 1022.8 hPa | 0 mm | - | 25 W/m² | - |
| 1777807163 | 10° C | 94% | 1022.4 hPa | 0 mm | - | 22 W/m² | - |
| 1777806861 | - | - | - | 0 mm | - | - | - |
| 1777806557 | 10° C | 94% | 1022.8 hPa | 0 mm | - | 9 W/m² | - |
| 1777806253 | 10° C | 94% | 1022.8 hPa | 0 mm | - | 9 W/m² | - |
| 1777805950 | 10° C | 95% | 1022.8 hPa | 0 mm | - | 5 W/m² | - |
| 1777805646 | 10° C | 95% | 1022.4 hPa | 0 mm | - | 2 W/m² | - |
| 1777805344 | 10° C | 96% | 1022.4 hPa | 0 mm | - | 0 W/m² | - |
| 1777805043 | 10° C | 96% | 1022.1 hPa | 0 mm | - | 0 W/m² | - |
* Rain latest hour (hover to see other rain measurements)
** Current wind speed in m/s (hover to see current wind gust speed)